CW3363 Weather Reports


Display with metric or nautical units.
time (UTC)temp
F
wind
direction
speed
MPH
gust
MPH
rain 1hr
in
rain 24hr
in
rain mn
in
humidity
%
barometer
mb
20260502184822 73 51 3.0 9.0 0.00 0.77 0.00 52 1020.7
20260502184328 73 66 1.0 12.0 0.00 0.77 0.00 53 1020.7
20260502183832 72 1 3.0 11.0 0.00 0.77 0.00 53 1020.6
20260502183401 72 278 3.0 11.0 0.00 0.77 0.00 52 1020.8
20260502182333 72 52 2.0 7.0 0.00 0.88 0.00 55 1020.8
20260502181838 72 11 2.0 8.0 0.00 0.88 0.00 55 1021.0
20260502181330 72 49 2.0 9.0 0.00 0.88 0.00 54 1021.0
20260502180836 71 60 2.0 7.0 0.00 0.88 0.00 55 1021.0
20260502180340 71 60 3.0 7.0 0.00 0.88 0.00 56 1021.1
20260502170326 69 317 3.0 12.0 0.00 0.97 0.00 60 1021.2
20260502164326 68 36 2.0 7.0 0.00 0.97 0.00 60 1021.3
20260502163830 68 75 3.0 8.0 0.00 0.97 0.00 61 1021.3
20260502163335 68 44 4.0 8.0 0.00 0.97 0.00 61 1021.2
20260502162822 68 43 2.0 9.0 0.00 0.97 0.00 63 1021.2
20260502162326 68 23 3.0 6.0 0.00 1.11 0.00 64 1021.2
20260502161830 67 322 1.0 9.0 0.00 1.11 0.00 68 1021.2
20260502161359 67 355 2.0 9.0 0.00 1.11 0.00 67 1021.2
20260502160822 66 102 3.0 12.0 0.00 1.11 0.00 66 1021.2
20260502160332 66 9 3.0 12.0 0.00 1.11 0.00 68 1021.1
20260502152326 64 331 3.0 9.0 0.00 0.00 0.00 73 1021.0
20260502151831 64 43 2.0 11.0 0.00 0.00 0.00 74 1021.0
20260502151337 64 39 4.0 11.0 0.00 0.00 0.00 75 1021.0
20260502150841 63 61 3.0 10.0 0.00 0.00 0.00 75 1021.0
20260502150329 63 351 3.0 9.0 0.00 0.00 0.00 76 1020.9
20260502130323 55 335 2.0 3.0 0.00 0.00 0.00 93 1019.7
20260502123327 53 348 0.0 3.0 0.00 0.00 0.00 95 1019.1
20260502122832 53 350 1.0 3.0 0.00 0.00 0.00 95 1019.1
20260502122338 53 323 1.0 2.0 0.00 0.00 0.00 95 1019.1
20260502121844 53 305 0.0 1.0 0.00 0.00 0.00 95 1019.1
20260502121328 52 305 0.0 1.0 0.00 0.00 0.00 95 1019.1
20260502120832 52 305 0.0 3.0 0.00 0.00 0.00 95 1019.1
20260502120356 52 305 2.0 3.0 0.00 0.00 0.00 95 1018.8
20260502115819 52 295 0.0 1.0 0.00 0.00 0.00 95 1018.8
20260502115329 52 295 0.0 1.0 0.00 0.00 0.00 95 1018.8
20260502114838 52 295 0.0 2.0 0.00 0.00 0.00 95 1018.6
20260502114324 52 295 1.0 2.0 0.00 0.00 0.00 95 1018.6
20260502113829 52 305 0.0 2.0 0.00 0.00 0.00 94 1018.6
20260502113334 52 305 1.0 2.0 0.00 0.00 0.00 95 1018.5
20260502112840 53 305 0.0 2.0 0.00 0.00 0.00 94 1018.5
20260502112325 53 305 0.0 2.0 0.00 0.00 0.00 94 1018.5
20260502111828 53 305 0.0 3.0 0.00 0.00 0.00 94 1018.5
20260502111334 53 1 1.0 3.0 0.00 0.00 0.00 94 1018.5
20260502110840 53 319 2.0 3.0 0.00 0.00 0.00 94 1018.5
20260502110325 53 297 1.0 3.0 0.00 0.00 0.00 94 1018.2
20260502105829 53 324 1.0 4.0 0.00 0.00 0.00 94 1018.2
20260502105341 53 319 0.0 4.0 0.00 0.00 0.00 94 1018.2
20260502104826 53 314 1.0 3.0 0.00 0.00 0.00 94 1018.0
20260502104332 53 357 1.0 3.0 0.00 0.00 0.00 94 1018.0
20260502103837 53 333 1.0 3.0 0.00 0.00 0.00 94 1018.0
20260502103346 53 6 1.0 3.0 0.00 0.00 0.00 94 1018.0
20260502102830 53 355 2.0 3.0 0.00 0.00 0.00 94 1018.0
20260502102333 53 279 0.0 3.0 0.00 0.00 0.00 94 1018.0
20260502101901 53 6 1.0 3.0 0.00 0.00 0.00 94 1017.5
20260502101324 53 358 1.0 3.0 0.00 0.00 0.00 94 1017.5
20260502100829 53 359 1.0 2.0 0.00 0.00 0.00 93 1017.5
20260502100335 53 9 1.0 2.0 0.00 0.00 0.00 93 1017.5
20260502091335 54 31 0.0 2.0 0.00 0.00 0.00 91 1016.7
20260502090902 54 324 0.0 2.0 0.00 0.00 0.00 91 1016.7
20260502090327 54 91 0.0 4.0 0.00 0.00 0.00 91 1016.4
20260502071323 55 94 0.0 4.0 0.00 0.00 0.00 93 1016.8
20260502070830 55 47 1.0 4.0 0.00 0.00 0.00 93 1016.8
20260502070337 55 66 1.0 5.0 0.00 0.00 0.00 93 1016.5
20260502065821 55 59 2.0 5.0 0.00 0.00 0.00 93 1016.5
20260502065327 55 317 2.0 6.0 0.00 0.00 0.00 94 1016.5
20260502064833 55 346 1.0 6.0 0.00 0.00 0.00 94 1016.4
20260502064324 55 99 2.0 6.0 0.00 0.00 0.00 94 1016.4
20260502063830 55 78 1.0 6.0 0.00 0.00 0.00 94 1016.4
20260502063336 55 50 2.0 8.0 0.00 0.00 0.00 94 1016.4
20260502062823 55 357 3.0 8.0 0.00 0.00 0.00 94 1016.4
20260502062329 55 85 2.0 7.0 0.00 0.00 0.00 94 1016.4
20260502061816 55 85 1.0 6.0 0.00 0.00 0.00 94 1016.3
20260502060832 55 351 2.0 6.0 0.00 0.00 0.00 94 1016.3
20260502060339 55 50 2.0 6.0 0.00 0.00 0.00 94 1016.4
20260502055825 55 60 3.0 7.0 0.00 0.00 0.00 95 1016.4
20260502055335 55 66 2.0 7.0 0.00 0.00 0.00 95 1016.4
20260502054823 55 110 2.0 5.0 0.00 0.00 0.00 95 1016.2
20260502054332 55 33 2.0 6.0 0.00 0.00 0.00 95 1016.2
20260502053820 55 341 3.0 6.0 0.00 0.00 0.00 95 1016.2
20260502053325 55 46 3.0 9.0 0.00 0.00 0.00 95 1016.2
20260502052852 55 288 3.0 9.0 0.00 0.00 0.00 95 1016.2
20260502052338 55 346 2.0 10.0 0.00 0.00 0.00 95 1016.2
20260502051824 55 11 3.0 6.0 0.00 0.00 0.00 96 1016.0
20260502051334 55 87 3.0 6.0 0.00 0.00 0.00 96 1016.0
20260502050824 56 51 2.0 8.0 0.00 0.00 0.00 96 1016.0
20260502050335 55 20 3.0 8.0 0.00 0.00 3.81 96 1015.9
20260502045821 56 21 3.0 6.0 0.00 0.00 3.81 96 1015.9
20260502045348 56 22 3.0 6.0 0.00 0.00 3.81 96 1015.9
20260502044835 56 33 2.0 8.0 0.00 0.00 3.81 96 1016.0
20260502044322 56 12 4.0 8.0 0.00 0.00 3.81 96 1016.0
20260502043828 56 66 3.0 6.0 0.00 0.00 3.81 96 1016.0
20260502043335 56 308 2.0 6.0 0.00 0.00 3.81 96 1015.9
20260502042821 56 36 2.0 6.0 0.00 0.00 3.81 96 1015.9
20260502042350 55 334 2.0 10.0 0.00 0.00 3.81 96 1015.9
20260502041835 55 42 4.0 10.0 0.00 0.00 3.81 96 1016.0
20260502041322 56 217 1.0 10.0 0.00 0.00 3.81 96 1016.0
20260502040834 55 358 4.0 7.0 0.00 0.00 3.81 96 1015.9
20260502040320 56 37 3.0 7.0 0.00 0.00 3.81 96 1016.1
20260502035825 56 353 3.0 7.0 0.00 0.00 3.81 96 1016.1
20260502035352 55 340 3.0 8.0 0.00 0.00 3.81 96 1016.1
20260502034836 56 288 3.0 13.0 0.00 0.00 3.81 96 1015.9
20260502034321 55 28 4.0 13.0 0.00 0.00 3.81 96 1015.9
20260502033828 56 342 3.0 11.0 0.00 0.00 3.81 97 1015.9
20260502033335 55 11 3.0 6.0 0.00 0.00 3.81 97 1015.6
20260502032822 55 292 3.0 7.0 0.00 0.00 3.81 97 1015.6
20260502032329 55 307 3.0 10.0 0.00 0.00 3.81 97 1015.6
20260502031822 56 308 3.0 13.0 0.01 0.00 3.81 97 1015.4
20260502031350 56 19 3.0 13.0 0.02 0.00 3.81 97 1015.4
20260502030836 56 42 2.0 5.0 0.02 0.00 3.81 97 1015.4
20260502030322 56 312 1.0 9.0 0.03 0.00 3.81 97 1014.9
20260502025850 56 51 4.0 9.0 0.04 0.00 3.81 97 1014.9
20260502025335 56 353 3.0 8.0 0.05 0.00 3.81 97 1014.9
20260502024824 56 15 2.0 7.0 0.06 0.00 3.81 97 1014.6
20260502024351 56 325 3.0 9.0 0.06 0.00 3.81 97 1014.6
20260502023839 56 46 4.0 9.0 0.07 0.00 3.81 97 1014.6
20260502023326 56 89 3.0 7.0 0.07 0.00 3.81 97 1014.5
20260502022832 56 322 3.0 5.0 0.08 0.00 3.81 97 1014.5
20260502022319 56 77 1.0 5.0 0.08 0.00 3.81 97 1014.5
20260502021830 56 300 3.0 5.0 0.09 0.00 3.80 97 1014.2
20260502021356 57 345 3.0 5.0 0.10 0.00 3.79 97 1014.2
20260502020821 57 37 2.0 7.0 0.12 0.00 3.79 97 1014.2
20260502020328 57 333 2.0 7.0 0.12 0.00 3.78 97 1014.4
20260502015834 57 359 2.0 5.0 0.12 0.00 3.77 97 1014.4
20260502015319 57 359 3.0 9.0 0.11 0.00 3.76 97 1014.4
20260502014829 57 98 3.0 9.0 0.10 0.00 3.75 97 1014.3
20260502014335 57 42 3.0 7.0 0.11 0.00 3.75 97 1014.3
20260502013820 58 332 2.0 6.0 0.10 0.00 3.74 97 1014.3
20260502013326 58 329 1.0 7.0 0.11 0.00 3.74 97 1013.4
20260502012831 58 336 2.0 7.0 0.11 0.00 3.73 97 1013.4
20260502012321 58 12 2.0 7.0 0.11 0.00 3.73 97 1013.4
20260502011828 58 99 1.0 7.0 0.10 0.00 3.71 97 1013.6
20260502011335 58 106 2.0 6.0 0.08 0.00 3.69 97 1013.6
20260502010841 59 6 2.0 5.0 0.06 0.00 3.67 97 1013.6
20260502010325 59 70 2.0 4.0 0.06 0.00 3.66 97 1013.9
20260502005835 59 9 1.0 4.0 0.06 0.00 3.65 97 1013.9
20260502005322 58 332 1.0 6.0 0.08 0.00 3.65 97 1013.8
20260502004828 58 295 2.0 10.0 0.09 0.00 3.65 97 1012.2
20260502004334 58 108 4.0 10.0 0.09 0.00 3.64 97 1012.2
20260502003825 58 16 1.0 5.0 0.10 0.00 3.64 97 1012.2
20260502003331 58 91 2.0 6.0 0.09 0.00 3.63 97 1012.7
20260502002822 58 16 2.0 6.0 0.08 0.00 3.62 97 1012.7
20260502002331 58 61 1.0 6.0 0.08 0.00 3.62 97 1012.7
20260502001818 59 336 3.0 6.0 0.07 0.00 3.61 97 1012.8
20260502001326 59 9 2.0 4.0 0.08 0.00 3.61 97 1012.8
20260502000832 59 11 2.0 7.0 0.11 0.00 3.61 97 1012.8
20260502000339 59 13 3.0 7.0 0.16 0.00 3.60 97 1013.3
20260501235824 59 19 1.0 5.0 0.18 0.00 3.59 97 1013.3
20260501235332 59 9 2.0 5.0 0.17 0.00 3.58 97 1013.3
20260501234818 59 87 2.0 7.0 0.16 0.00 3.56 97 1012.3
20260501234333 59 315 3.0 7.0 0.15 0.00 3.55 97 1012.3
20260501233839 59 349 2.0 6.0 0.14 0.00 3.54 97 1012.3
20260501233325 59 48 1.0 10.0 0.14 0.00 3.54 97 1011.6
20260501232830 59 10 2.0 11.0 0.14 0.00 3.54 97 1011.6
20260501232338 59 11 4.0 11.0 0.14 0.00 3.54 97 1011.6
20260501231842 59 179 1.0 10.0 0.14 0.00 3.54 97 1011.5
20260501231325 59 85 3.0 14.0 0.13 0.00 3.53 97 1011.5
20260501230832 59 132 6.0 14.0 0.10 0.00 3.50 97 1011.5
20260501230358 60 131 6.0 11.0 0.04 0.00 3.44 97 1011.4
20260501225901 60 89 3.0 7.0 0.01 0.00 3.41 97 1011.4
20260501225324 60 312 2.0 9.0 0.01 0.00 3.41 97 1011.4
20260501224829 60 11 4.0 15.0 0.00 0.00 3.40 97 1010.6
20260501224332 60 85 5.0 15.0 0.00 0.00 3.40 97 1010.6
20260501223836 60 94 3.0 13.0 0.00 0.00 3.40 97 1010.6
20260501223322 60 80 2.0 13.0 0.01 0.00 3.40 97 1010.2
20260501222830 60 80 4.0 11.0 0.01 0.00 3.40 97 1010.2
20260501222334 60 166 2.0 7.0 0.03 0.00 3.40 97 1010.2
20260501221821 60 45 3.0 7.0 0.03 0.00 3.40 97 1010.9
20260501221440 60 51 3.0 13.0 0.03 0.00 3.40 97 1010.9
20260501220833 60 18 4.0 13.0 0.03 0.00 3.40 97 1010.9
20260501220317 61 31 4.0 9.0 0.03 0.00 3.40 97 1011.6
20260501215824 61 49 2.0 7.0 0.03 0.00 3.40 97 1011.6
20260501215329 61 6 3.0 7.0 0.03 0.00 3.40 97 1011.6
20260501214835 61 61 1.0 6.0 0.03 0.00 3.40 98 1012.1
20260501214339 61 23 2.0 6.0 0.04 0.00 3.40 97 1012.1
20260501213828 61 30 2.0 7.0 0.05 0.00 3.40 97 1012.1
20260501213353 61 333 2.0 7.0 0.05 0.00 3.39 97 1011.5
20260501212835 61 347 1.0 7.0 0.07 0.00 3.39 97 1011.5
20260501212359 61 10 2.0 5.0 0.07 0.00 3.38 98 1011.5
20260501211822 61 22 1.0 5.0 0.08 0.00 3.37 97 1010.5
20260501211329 61 9 1.0 5.0 0.08 0.00 3.37 98 1010.5
20260501210837 61 14 2.0 6.0 0.10 0.00 3.37 98 1010.5
20260501210322 61 11 2.0 7.0 0.11 0.00 3.37 98 1010.7
20260501205829 61 355 3.0 10.0 0.13 0.00 3.37 98 1010.7
20260501205334 61 11 3.0 10.0 0.16 0.00 3.37 97 1010.7
20260501204820 61 10 3.0 11.0 0.17 0.00 3.37 97 1011.2
20260501204329 61 84 2.0 11.0 0.16 0.00 3.36 97 1011.2
20260501203853 61 37 2.0 4.0 0.15 0.00 3.35 98 1011.2
20260501203341 62 10 1.0 10.0 0.14 0.00 3.34 98 1010.3
20260501202824 62 1 4.0 10.0 0.12 0.00 3.32 98 1010.3
20260501202350 62 88 1.0 5.0 0.13 0.00 3.32 97 1010.3
20260501201833 62 82 1.0 9.0 0.11 0.00 3.30 98 1009.7
20260501201338 62 89 2.0 12.0 0.10 0.00 3.29 97 1009.7
20260501200844 62 11 3.0 12.0 0.09 0.00 3.27 97 1009.7
20260501200330 62 336 2.0 7.0 0.08 0.00 3.26 98 1010.2
20260501195817 62 47 3.0 7.0 0.08 0.00 3.25 98 1010.2
20260501195325 62 349 2.0 7.0 0.05 0.00 3.21 98 1010.2
20260501194835 62 321 1.0 7.0 0.05 0.00 3.20 98 1009.8
20260501194320 62 4 2.0 5.0 0.06 0.00 3.20 98 1009.8
20260501193829 62 75 1.0 5.0 0.09 0.00 3.20 98 1009.8
20260501193335 62 55 1.0 5.0 0.14 0.00 3.20 98 1010.1
20260501192825 62 87 2.0 5.0 0.15 0.00 3.20 98 1010.1
20260501192331 62 46 2.0 5.0 0.15 0.00 3.19 98 1010.1
20260501191837 62 76 2.0 7.0 0.15 0.00 3.19 98 1010.7
20260501191324 62 48 2.0 7.0 0.16 0.00 3.19 98 1010.7
20260501190850 62 60 2.0 4.0 0.16 0.00 3.18 98 1010.7
20260501190355 63 83 1.0 5.0 0.19 0.00 3.18 98 1010.2
20260501185819 62 77 1.0 5.0 0.18 0.00 3.17 98 1010.2
20260501185328 62 70 0.0 6.0 0.18 0.00 3.16 98 1010.2